,,Stat6,,Stat2,,Stat8,,Stat9,,Stat10,,Wind1,,Wind1,
time,status,PA1M_AVG,status,PR1M_SUM,status,RH1M_AVG,status,SR1M_AVG,status,TA1M_AVG,status,W1dAve1m,status,W1sAve1m,
2008-04-23, 00:00:00,VALID,916.165,VALID,0,VALID,100,VALID,0,VALID,18.794,VALID,159,VALID,0,
2008-04-23, 00:01:00,VALID,916.15,VALID,0,VALID,100,VALID,-0.0169808,VALID,18.7942,VALID,158,VALID,0,
2008-04-23, 00:02:00,VALID,916.142,VALID,0,VALID,100,VALID,0,VALID,18.8072,VALID,158,VALID,0,
2008-04-23, 00:03:00,VALID,916.136,VALID,0,VALID,100,VALID,-0.0339617,VALID,18.8137,VALID,158,VALID,0,
2008-04-23, 00:04:00,VALID,916.136,VALID,0,VALID,100,VALID,-0.0339617,VALID,18.8169,VALID,158,VALID,0,
2008-04-23, 00:05:00,VALID,916.13,VALID,0,VALID,100,VALID,0,VALID,18.8039,VALID,158,VALID,0,
2008-04-23, 00:06:00,VALID,916.129,VALID,0,VALID,100,VALID,0,VALID,18.7972,VALID,158,VALID,0,
2008-04-23, 00:07:00,VALID,916.122,VALID,0,VALID,100,VALID,-0.0339617,VALID,18.7974,VALID,158,VALID,0,
2008-04-23, 00:08:00,VALID,916.126,VALID,0,VALID,100,VALID,0.0169808,VALID,18.781,VALID,158,VALID,0,
2008-04-23, 00:09:00,VALID,916.13,VALID,0,VALID,100,VALID,0.0169808,VALID,18.7909,VALID,158,VALID,0,
2008-04-23, 00:10:00,VALID,916.129,VALID,0,VALID,100,VALID,0,VALID,18.7907,VALID,158,VALID,0,
2008-04-23, 00:11:00,VALID,916.128,VALID,0,VALID,100,VALID,0.0169808,VALID,18.7909,VALID,158,VALID,0,
2008-04-23, 00:12:00,VALID,916.129,VALID,0,VALID,100,VALID,0.0509425,VALID,18.7877,VALID,158,VALID,0,
2008-04-23, 00:13:00,VALID,916.131,VALID,0,VALID,100,VALID,0,VALID,18.7909,VALID,158,VALID,0,
2008-04-23, 00:14:00,VALID,916.129,VALID,0,VALID,100,VALID,-0.0169808,VALID,18.7812,VALID,158,VALID,0,
2008-04-23, 00:15:00,VALID,916.126,VALID,0,VALID,100,VALID,0.0169808,VALID,18.7747,VALID,158,VALID,0,
2008-04-23, 00:16:00,VALID,916.119,VALID,0,VALID,100,VALID,0,VALID,18.765,VALID,158,VALID,0,
2008-04-23, 00:17:00,VALID,916.103,VALID,0,VALID,100,VALID,-0.0169808,VALID,18.7685,VALID,158,VALID,0,
2008-04-23, 00:18:00,VALID,916.086,VALID,0,VALID,100,VALID,-0.0169808,VALID,18.7455,VALID,158,VALID,0,
2008-04-23, 00:19:00,VALID,916.079,VALID,0,VALID,100,VALID,-0.0169808,VALID,18.752,VALID,158,VALID,0,
2008-04-23, 00:20:00,VALID,916.071,VALID,0,VALID,100,VALID,0.0169808,VALID,18.7488,VALID,158,VALID,0,
2008-04-23, 00:21:00,VALID,916.065,VALID,0,VALID,100,VALID,0,VALID,18.752,VALID,158,VALID,0,
2008-04-23, 00:22:00,VALID,916.057,VALID,0,VALID,100,VALID,0,VALID,18.755,VALID,158,VALID,0,
2008-04-23, 00:23:00,VALID,916.053,VALID,0,VALID,100,VALID,0.0169808,VALID,18.7583,VALID,158,VALID,0,
2008-04-23, 00:24:00,VALID,916.036,VALID,0,VALID,100,VALID,-0.0339617,VALID,18.7618,VALID,155,VALID,0,
2008-04-23, 00:25:00,VALID,916.019,VALID,0,VALID,100,VALID,0,VALID,18.752,VALID,149,VALID,0,
2008-04-23, 00:26:00,VALID,916.013,VALID,0,VALID,100,VALID,-0.0169808,VALID,18.759,VALID,140,VALID,0,
2008-04-23, 00:27:00,VALID,916.007,VALID,0,VALID,100,VALID,0,VALID,18.765,VALID,139,VALID,0,
2008-04-23, 00:28:00,VALID,916.014,VALID,0,VALID,100,VALID,0,VALID,18.7682,VALID,140,VALID,0,
2008-04-23, 00:29:00,VALID,916.021,VALID,0,VALID,100,VALID,-0.0169808,VALID,18.7618,VALID,140,VALID,0,
2008-04-23, 00:30:00,VALID,916,VALID,0,VALID,100,VALID,0.0169808,VALID,18.7648,VALID,140,VALID,0,
2008-04-23, 00:31:00,VALID,916.001,VALID,0,VALID,100,VALID,0.0339617,VALID,18.7548,VALID,140,VALID,0,
2008-04-23, 00:32:00,VALID,915.989,VALID,0,VALID,100,VALID,0,VALID,18.7455,VALID,140,VALID,0,
2008-04-23, 00:33:00,VALID,915.991,VALID,0,VALID,100,VALID,-0.0169808,VALID,18.7388,VALID,140,VALID,0,
2008-04-23, 00:34:00,VALID,915.994,VALID,0,VALID,100,VALID,-0.0169808,VALID,18.7553,VALID,140,VALID,0,
2008-04-23, 00:35:00,VALID,915.985,VALID,0,VALID,100,VALID,-0.0169808,VALID,18.7648,VALID,136,VALID,0,
2008-04-23, 00:36:00,VALID,915.968,VALID,0,VALID,100,VALID,0,VALID,18.7712,VALID,139,VALID,0,
2008-04-23, 00:37:00,VALID,915.963,VALID,0,VALID,100,VALID,-0.0169808,VALID,18.7747,VALID,131,VALID,0,
2008-04-23, 00:38:00,VALID,915.94,VALID,0,VALID,100,VALID,0,VALID,18.7847,VALID,122,VALID,0,
2008-04-23, 00:39:00,VALID,915.903,VALID,0,VALID,100,VALID,0,VALID,18.781,VALID,107,VALID,0,
2008-04-23, 00:40:00,VALID,915.867,VALID,0,VALID,100,VALID,0,VALID,18.7682,VALID,109,VALID,0,
2008-04-23, 00:41:00,VALID,915.838,VALID,0,VALID,100,VALID,0.0169808,VALID,18.7845,VALID,118,VALID,0,
2008-04-23, 00:42:00,VALID,915.811,VALID,0,VALID,100,VALID,0,VALID,18.7845,VALID,124,VALID,0,
2008-04-23, 00:43:00,VALID,915.794,VALID,0,VALID,100,VALID,0,VALID,18.7847,VALID,130,VALID,0,
2008-04-23, 00:44:00,VALID,915.761,VALID,0,VALID,100,VALID,0.0169808,VALID,18.765,VALID,130,VALID,0,
2008-04-23, 00:45:00,VALID,915.726,VALID,0,VALID,100,VALID,0.0169808,VALID,18.739,VALID,123,VALID,0,
2008-04-23, 00:46:00,VALID,915.7,VALID,0,VALID,100,VALID,-0.0169808,VALID,18.7423,VALID,120,VALID,0,
2008-04-23, 00:47:00,VALID,915.67,VALID,0,VALID,100,VALID,0,VALID,18.7198,VALID,117,VALID,0,
2008-04-23, 00:48:00,VALID,915.663,VALID,0,VALID,100,VALID,0,VALID,18.7099,VALID,116,VALID,0,
2008-04-23, 00:49:00,VALID,915.649,VALID,0,VALID,100,VALID,0.0169808,VALID,18.6934,VALID,117,VALID,0,
2008-04-23, 00:50:00,VALID,915.625,VALID,0,VALID,100,VALID,-0.0849042,VALID,18.6816,VALID,117,VALID,0,
2008-04-23, 00:51:00,VALID,915.608,VALID,0,VALID,100,VALID,-0.0849042,VALID,18.6821,VALID,107,VALID,0,
2008-04-23, 00:52:00,VALID,915.585,VALID,0,VALID,100,VALID,-0.0509425,VALID,18.6587,VALID,96,VALID,0,
2008-04-23, 00:53:00,VALID,915.573,VALID,0,VALID,100,VALID,-0.0509425,VALID,18.6723,VALID,101,VALID,0,
2008-04-23, 00:54:00,VALID,915.552,VALID,0,VALID,100,VALID,-0.0849042,VALID,18.6587,VALID,99,VALID,0.740412,
2008-04-23, 00:55:00,VALID,915.546,VALID,0,VALID,100,VALID,-0.101885,VALID,18.7048,VALID,99,VALID,1.29488,
2008-04-23, 00:56:00,VALID,915.521,VALID,0,VALID,100,VALID,-0.101885,VALID,18.737,VALID,100,VALID,1.1131,
2008-04-23, 00:57:00,VALID,915.512,VALID,0,VALID,100,VALID,-0.101885,VALID,18.747,VALID,113,VALID,1.0972,
2008-04-23, 00:58:00,VALID,915.523,VALID,0,VALID,100,VALID,-0.101885,VALID,18.7565,VALID,122,VALID,1.04055,
2008-04-23, 00:59:00,VALID,915.516,VALID,0,VALID,100,VALID,-0.118866,VALID,18.75,VALID,137,VALID,1.16778,
2008-04-23, 01:00:00,VALID,915.503,VALID,0,VALID,100,VALID,-0.118866,VALID,18.7602,VALID,141,VALID,1.12591,
2008-04-23, 01:01:00,VALID,915.477,VALID,0,VALID,100,VALID,-0.118866,VALID,18.7467,VALID,132,VALID,1.12016,
2008-04-23, 01:02:00,VALID,915.451,VALID,0,VALID,100,VALID,-0.101885,VALID,18.7467,VALID,124,VALID,1.02095,
2008-04-23, 01:03:00,VALID,915.432,VALID,0,VALID,100,VALID,-0.101885,VALID,18.7599,VALID,108,VALID,1.06529,
2008-04-23, 01:04:00,VALID,915.4,VALID,0,VALID,100,VALID,-0.101885,VALID,18.7502,VALID,106,VALID,0.834794,
2008-04-23, 01:05:00,VALID,915.389,VALID,0,VALID,100,VALID,-0.0169808,VALID,18.7421,VALID,107,VALID,0.892299,
2008-04-23, 01:06:00,VALID,915.384,VALID,0,VALID,100,VALID,0.0339617,VALID,18.7481,VALID,115,VALID,0.785666,
2008-04-23, 01:07:00,VALID,915.367,VALID,0,VALID,100,VALID,0.0339617,VALID,18.7383,VALID,124,VALID,0.855639,
2008-04-23, 01:08:00,VALID,915.349,VALID,0,VALID,100,VALID,0.0339617,VALID,18.755,VALID,124,VALID,0.734193,
2008-04-23, 01:09:00,VALID,915.335,VALID,0,VALID,100,VALID,0.0339617,VALID,18.7585,VALID,116,VALID,0.656783,
2008-04-23, 01:10:00,VALID,915.323,VALID,0,VALID,100,VALID,0,VALID,18.7518,VALID,108,VALID,0.940476,
2008-04-23, 01:11:00,VALID,915.294,VALID,0,VALID,100,VALID,0.0679233,VALID,18.768,VALID,104,VALID,0.96733,
2008-04-23, 01:12:00,VALID,915.288,VALID,0,VALID,100,VALID,0.0679233,VALID,18.781,VALID,92,VALID,1.02511,
2008-04-23, 01:13:00,VALID,915.283,VALID,0,VALID,100,VALID,0,VALID,18.7845,VALID,92,VALID,0.522866,
2008-04-23, 01:14:00,VALID,915.261,VALID,0,VALID,100,VALID,0.0339617,VALID,18.7842,VALID,96,VALID,0.771662,
2008-04-23, 01:15:00,VALID,915.241,VALID,0,VALID,100,VALID,0.0339617,VALID,18.7807,VALID,96,VALID,0.886308,
2008-04-23, 01:16:00,VALID,915.219,VALID,0,VALID,100,VALID,0.0339617,VALID,18.8037,VALID,100,VALID,0.863636,
2008-04-23, 01:17:00,VALID,915.195,VALID,0,VALID,100,VALID,0.0509425,VALID,18.8065,VALID,95,VALID,0.762835,
2008-04-23, 01:18:00,VALID,915.189,VALID,0,VALID,100,VALID,0.0339617,VALID,18.8364,VALID,105,VALID,0.725109,
2008-04-23, 01:19:00,VALID,915.183,VALID,0,VALID,100,VALID,0,VALID,18.8361,VALID,113,VALID,0.779883,
2008-04-23, 01:20:00,VALID,915.148,VALID,0,VALID,100,VALID,0.0169808,VALID,18.8199,VALID,116,VALID,1.15997,
2008-04-23, 01:21:00,VALID,915.137,VALID,0,VALID,100,VALID,0.0339617,VALID,18.8132,VALID,120,VALID,1.26442,
2008-04-23, 01:22:00,VALID,915.133,VALID,0,VALID,100,VALID,0.0509425,VALID,18.8034,VALID,141,VALID,1.13223,
2008-04-23, 01:23:00,VALID,915.125,VALID,0,VALID,100,VALID,0.0339617,VALID,18.7842,VALID,137,VALID,1.1849,
2008-04-23, 01:24:00,VALID,915.119,VALID,0,VALID,100,VALID,0.0679233,VALID,18.7678,VALID,135,VALID,0.72061,
2008-04-23, 01:25:00,VALID,915.097,VALID,0,VALID,100,VALID,0.0339617,VALID,18.7546,VALID,129,VALID,0.737805,
2008-04-23, 01:26:00,VALID,915.077,VALID,0,VALID,100,VALID,0.0679233,VALID,18.7383,VALID,124,VALID,0.938101,
2008-04-23, 01:27:00,VALID,915.07,VALID,0,VALID,100,VALID,0.0679233,VALID,18.7191,VALID,114,VALID,0.985973,
2008-04-23, 01:28:00,VALID,915.054,VALID,0,VALID,100,VALID,0.0169808,VALID,18.7161,VALID,113,VALID,1.11644,
2008-04-23, 01:29:00,VALID,915.028,VALID,0,VALID,100,VALID,0.0339617,VALID,18.7034,VALID,113,VALID,0.979048,
2008-04-23, 01:30:00,VALID,915.009,VALID,0,VALID,100,VALID,0.0509425,VALID,18.7126,VALID,115,VALID,1.38942,
2008-04-23, 01:31:00,VALID,914.991,VALID,0,VALID,100,VALID,0.0509425,VALID,18.7228,VALID,113,VALID,0.971298,
2008-04-23, 01:32:00,VALID,914.963,VALID,0,VALID,100,VALID,0.0339617,VALID,18.7258,VALID,112,VALID,1.13491,
2008-04-23, 01:33:00,VALID,914.93,VALID,0,VALID,100,VALID,0.0679233,VALID,18.7358,VALID,113,VALID,1.19168,
2008-04-23, 01:34:00,VALID,914.902,VALID,0,VALID,100,VALID,0.0339617,VALID,18.7356,VALID,114,VALID,0.881138,
2008-04-23, 01:35:00,VALID,914.86,VALID,0,VALID,100,VALID,0.0339617,VALID,18.7351,VALID,104,VALID,0.800686,
2008-04-23, 01:36:00,VALID,914.808,VALID,0,VALID,100,VALID,0.0509425,VALID,18.7281,VALID,102,VALID,0.990589,
2008-04-23, 01:37:00,VALID,914.77,VALID,0,VALID,100,VALID,0.0169808,VALID,18.7585,VALID,107,VALID,0.947266,
2008-04-23, 01:38:00,VALID,914.733,VALID,0,VALID,100,VALID,0,VALID,18.7618,VALID,97,VALID,0.905692,
2008-04-23, 01:39:00,VALID,914.696,VALID,0,VALID,100,VALID,0.0339617,VALID,18.7745,VALID,94,VALID,1.20952,
2008-04-23, 01:40:00,VALID,914.653,VALID,0,VALID,100,VALID,0,VALID,18.8034,VALID,82,VALID,0.99628,
2008-04-23, 01:41:00,VALID,914.606,VALID,0,VALID,100,VALID,0.0339617,VALID,18.8364,VALID,90,VALID,1.03716,
2008-04-23, 01:42:00,VALID,914.579,VALID,0,VALID,100,VALID,0,VALID,18.8521,VALID,81,VALID,0.896802,
2008-04-23, 01:43:00,VALID,914.549,VALID,0,VALID,100,VALID,0.0339617,VALID,18.8783,VALID,73,VALID,0.900981,
2008-04-23, 01:44:00,VALID,914.514,VALID,0,VALID,100,VALID,0.0169808,VALID,18.9045,VALID,79,VALID,1.36399,
2008-04-23, 01:45:00,VALID,914.489,VALID,0,VALID,100,VALID,0.0169808,VALID,18.9269,VALID,83,VALID,0.655342,
2008-04-23, 01:46:00,VALID,914.465,VALID,0,VALID,100,VALID,0,VALID,18.9277,VALID,113,VALID,0.699777,
2008-04-23, 01:47:00,VALID,914.443,VALID,0,VALID,100,VALID,0.0169808,VALID,18.9075,VALID,124,VALID,0.866443,
2008-04-23, 01:48:00,VALID,914.416,VALID,0,VALID,100,VALID,0.0169808,VALID,18.898,VALID,102,VALID,0.891741,
2008-04-23, 01:49:00,VALID,914.38,VALID,0,VALID,100,VALID,0,VALID,18.8653,VALID,90,VALID,0.797215,
2008-04-23, 01:50:00,VALID,914.356,VALID,0,VALID,100,VALID,0.0339617,VALID,18.8396,VALID,76,VALID,0.966332,
2008-04-23, 01:51:00,VALID,914.353,VALID,0,VALID,100,VALID,0.0169808,VALID,18.8099,VALID,83,VALID,0.932118,
2008-04-23, 01:52:00,VALID,914.339,VALID,0,VALID,100,VALID,0,VALID,18.8039,VALID,85,VALID,1.07999,
2008-04-23, 01:53:00,VALID,914.339,VALID,0,VALID,100,VALID,0.0339617,VALID,18.7972,VALID,73,VALID,0.870584,
2008-04-23, 01:54:00,VALID,914.332,VALID,0,VALID,100,VALID,0,VALID,18.7977,VALID,59,VALID,0.958031,
2008-04-23, 01:55:00,VALID,914.341,VALID,0,VALID,100,VALID,0,VALID,18.7817,VALID,64,VALID,0.963368,
2008-04-23, 01:56:00,VALID,914.356,VALID,0,VALID,100,VALID,0.0169808,VALID,18.7879,VALID,91,VALID,1.09933,
2008-04-23, 01:57:00,VALID,914.341,VALID,0,VALID,100,VALID,0.0169808,VALID,18.7942,VALID,128,VALID,0.59013,
2008-04-23, 01:58:00,VALID,914.355,VALID,0,VALID,100,VALID,0.0169808,VALID,18.8039,VALID,119,VALID,1.07347,
2008-04-23, 01:59:00,VALID,914.345,VALID,0,VALID,100,VALID,0,VALID,18.8037,VALID,122,VALID,0.915838,
2008-04-23, 02:00:00,VALID,914.325,VALID,0,VALID,100,VALID,-0.0339617,VALID,18.8007,VALID,115,VALID,1.03811,
2008-04-23, 02:01:00,VALID,914.298,VALID,0,VALID,100,VALID,0.0169808,VALID,18.7845,VALID,110,VALID,0.867188,
2008-04-23, 02:02:00,VALID,914.274,VALID,0,VALID,100,VALID,0,VALID,18.7884,VALID,101,VALID,0.775298,
2008-04-23, 02:03:00,VALID,914.264,VALID,0,VALID,100,VALID,0.0169808,VALID,18.7712,VALID,103,VALID,0.527699,
2008-04-23, 02:04:00,VALID,914.253,VALID,0,VALID,100,VALID,0,VALID,18.765,VALID,125,VALID,0.686632,
2008-04-23, 02:05:00,VALID,914.259,VALID,0,VALID,100,VALID,0.0679233,VALID,18.7678,VALID,153,VALID,0.956352,
2008-04-23, 02:06:00,VALID,914.255,VALID,0,VALID,100,VALID,0.101885,VALID,18.7671,VALID,154,VALID,0.976563,
2008-04-23, 02:07:00,VALID,914.224,VALID,0,VALID,100,VALID,0.101885,VALID,18.7768,VALID,134,VALID,0.771439,
2008-04-23, 02:08:00,VALID,914.196,VALID,0,VALID,100,VALID,0.118866,VALID,18.7833,VALID,129,VALID,0.540737,
2008-04-23, 02:09:00,VALID,914.187,VALID,0,VALID,100,VALID,0.101885,VALID,18.7868,VALID,110,VALID,0.590909,
2008-04-23, 02:10:00,VALID,914.146,VALID,0,VALID,100,VALID,0.135847,VALID,18.8027,VALID,76,VALID,0.844658,
2008-04-23, 02:11:00,VALID,914.127,VALID,0,VALID,100,VALID,0.101885,VALID,18.7928,VALID,88,VALID,1.30717,
2008-04-23, 02:12:00,VALID,914.117,VALID,0,VALID,100,VALID,0.0679233,VALID,18.8382,VALID,87,VALID,1.19786,
2008-04-23, 02:13:00,VALID,914.113,VALID,0,VALID,100,VALID,0.101885,VALID,18.8933,VALID,98,VALID,1.14825,
2008-04-23, 02:14:00,VALID,914.075,VALID,0,VALID,100,VALID,0.101885,VALID,18.9257,VALID,88,VALID,1.24473,
2008-04-23, 02:15:00,VALID,914.066,VALID,0,VALID,100,VALID,0.101885,VALID,18.9647,VALID,83,VALID,1.18229,
2008-04-23, 02:16:00,VALID,914.052,VALID,0,VALID,100,VALID,0.0849042,VALID,18.9911,VALID,104,VALID,0.830966,
2008-04-23, 02:17:00,VALID,914.031,VALID,0,VALID,100,VALID,0.101885,VALID,19.0173,VALID,93,VALID,0.144176,
2008-04-23, 02:18:00,VALID,914.01,VALID,0,VALID,100,VALID,0.101885,VALID,19.0201,VALID,78,VALID,0.463844,
2008-04-23, 02:19:00,VALID,913.992,VALID,0,VALID,100,VALID,0.101885,VALID,19.036,VALID,83,VALID,0.809593,
2008-04-23, 02:20:00,VALID,913.986,VALID,0,VALID,100,VALID,0.0339617,VALID,19.0759,VALID,97,VALID,0.940848,
2008-04-23, 02:21:00,VALID,913.97,VALID,0,VALID,99.9313,VALID,0,VALID,19.0929,VALID,63,VALID,0.751995,
2008-04-23, 02:22:00,VALID,913.975,VALID,0,VALID,99.8032,VALID,0.0169808,VALID,19.1123,VALID,93,VALID,0.91495,
2008-04-23, 02:23:00,VALID,913.987,VALID,0,VALID,99.7002,VALID,0,VALID,19.1153,VALID,96,VALID,0.455793,
2008-04-23, 02:24:00,VALID,913.993,VALID,0,VALID,99.5997,VALID,0.0169808,VALID,19.1253,VALID,104,VALID,0.792039,
2008-04-23, 02:25:00,VALID,913.997,VALID,0,VALID,99.5247,VALID,-0.0169808,VALID,19.1218,VALID,123,VALID,0.735283,
2008-04-23, 02:26:00,VALID,914.003,VALID,0,VALID,99.4725,VALID,-0.0339617,VALID,19.148,VALID,100,VALID,1.1266,
2008-04-23, 02:27:00,VALID,913.979,VALID,0,VALID,99.4128,VALID,0,VALID,19.1969,VALID,91,VALID,1.13086,
2008-04-23, 02:28:00,VALID,913.969,VALID,0,VALID,99.1521,VALID,-0.0339617,VALID,19.2354,VALID,71,VALID,0.360069,
2008-04-23, 02:29:00,VALID,913.95,VALID,0,VALID,98.9906,VALID,-0.0169808,VALID,19.2583,VALID,63,VALID,0,
2008-04-23, 02:30:00,VALID,913.949,VALID,0,VALID,98.8876,VALID,0,VALID,19.2843,VALID,98,VALID,1.00087,
2008-04-23, 02:31:00,VALID,913.948,VALID,0,VALID,98.6346,VALID,-0.0169808,VALID,19.3195,VALID,143,VALID,0.396151,
2008-04-23, 02:32:00,VALID,913.954,VALID,0,VALID,98.4731,VALID,0,VALID,19.3327,VALID,151,VALID,0,
2008-04-23, 02:33:00,VALID,913.962,VALID,0,VALID,98.4158,VALID,0.0169808,VALID,19.323,VALID,151,VALID,0,
2008-04-23, 02:34:00,VALID,913.97,VALID,0,VALID,98.4667,VALID,0.0169808,VALID,19.3232,VALID,139,VALID,0.748884,
2008-04-23, 02:35:00,VALID,913.947,VALID,0,VALID,98.3917,VALID,0.0509425,VALID,19.3424,VALID,127,VALID,0.661285,
2008-04-23, 02:36:00,VALID,913.941,VALID,0,VALID,98.295,VALID,0.0169808,VALID,19.3619,VALID,142,VALID,0.94375,
2008-04-23, 02:37:00,VALID,913.924,VALID,0,VALID,98.1526,VALID,0,VALID,19.3943,VALID,139,VALID,0.353431,
2008-04-23, 02:38:00,VALID,913.902,VALID,0,VALID,98.028,VALID,0,VALID,19.4108,VALID,129,VALID,0.668445,
2008-04-23, 02:39:00,VALID,913.878,VALID,0,VALID,97.9428,VALID,0,VALID,19.4138,VALID,132,VALID,0.0584239,
2008-04-23, 02:40:00,VALID,913.875,VALID,0,VALID,97.8729,VALID,0,VALID,19.4076,VALID,133,VALID,0,
2008-04-23, 02:41:00,VALID,913.863,VALID,0,VALID,97.883,VALID,0,VALID,19.3946,VALID,146,VALID,0.125,
2008-04-23, 02:42:00,VALID,913.863,VALID,0,VALID,97.9695,VALID,-0.0169808,VALID,19.3621,VALID,152,VALID,0.0525568,
2008-04-23, 02:43:00,VALID,913.85,VALID,0,VALID,98.1552,VALID,0,VALID,19.3297,VALID,152,VALID,0,
2008-04-23, 02:44:00,VALID,913.852,VALID,0,VALID,98.2976,VALID,-0.0169808,VALID,19.31,VALID,152,VALID,0,
2008-04-23, 02:45:00,VALID,913.834,VALID,0,VALID,98.3675,VALID,0,VALID,19.307,VALID,155,VALID,0.162348,
2008-04-23, 02:46:00,VALID,913.83,VALID,0,VALID,98.4565,VALID,0,VALID,19.3132,VALID,166,VALID,1.23098,
2008-04-23, 02:47:00,VALID,913.812,VALID,0,VALID,98.2505,VALID,0.0169808,VALID,19.32,VALID,191,VALID,0.710565,
2008-04-23, 02:48:00,VALID,913.787,VALID,0,VALID,98.2162,VALID,0,VALID,19.2908,VALID,191,VALID,0.0571646,
2008-04-23, 02:49:00,VALID,913.766,VALID,0,VALID,98.351,VALID,0,VALID,19.2421,VALID,192,VALID,0.389323,
2008-04-23, 02:50:00,VALID,913.745,VALID,0,VALID,98.543,VALID,0,VALID,19.2127,VALID,193,VALID,0.444931,
2008-04-23, 02:51:00,VALID,913.731,VALID,0,VALID,98.688,VALID,0,VALID,19.174,VALID,193,VALID,0.788336,
2008-04-23, 02:52:00,VALID,913.723,VALID,0,VALID,98.8889,VALID,0,VALID,19.1418,VALID,199,VALID,0.553267,
2008-04-23, 02:53:00,VALID,913.725,VALID,0,VALID,99.0834,VALID,0.0169808,VALID,19.1218,VALID,199,VALID,0.680035,
2008-04-23, 02:54:00,VALID,913.738,VALID,0,VALID,99.2424,VALID,0.0169808,VALID,19.0861,VALID,199,VALID,0.41373,
2008-04-23, 02:55:00,VALID,913.747,VALID,0,VALID,99.3695,VALID,0,VALID,19.0706,VALID,195,VALID,0,
2008-04-23, 02:56:00,VALID,913.758,VALID,0,VALID,99.5107,VALID,0.0339617,VALID,19.0312,VALID,195,VALID,0,
2008-04-23, 02:57:00,VALID,913.777,VALID,0,VALID,99.6582,VALID,0.0169808,VALID,19.0115,VALID,195,VALID,0,
2008-04-23, 02:58:00,VALID,913.789,VALID,0,VALID,99.8006,VALID,0.0169808,VALID,19.0018,VALID,194,VALID,0.149609,
2008-04-23, 02:59:00,VALID,913.792,VALID,0,VALID,99.9418,VALID,0.0169808,VALID,18.9853,VALID,192,VALID,0.126302,
2008-04-23, 03:00:00,VALID,913.798,VALID,0,VALID,99.9964,VALID,0,VALID,18.9761,VALID,191,VALID,0.215104,
2008-04-23, 03:01:00,VALID,913.794,VALID,0,VALID,100,VALID,0.0169808,VALID,18.9664,VALID,182,VALID,0.354968,
2008-04-23, 03:02:00,VALID,913.774,VALID,0,VALID,100,VALID,0,VALID,18.9629,VALID,182,VALID,0.0105469,
2008-04-23, 03:03:00,VALID,913.769,VALID,0,VALID,100,VALID,0,VALID,18.9601,VALID,165,VALID,0.606889,
2008-04-23, 03:04:00,VALID,913.737,VALID,0,VALID,100,VALID,-0.0169808,VALID,18.9731,VALID,166,VALID,0.0454215,
2008-04-23, 03:05:00,VALID,913.697,VALID,0,VALID,100,VALID,0.0509425,VALID,18.9786,VALID,161,VALID,0,
2008-04-23, 03:06:00,VALID,913.687,VALID,0,VALID,100,VALID,0.0339617,VALID,18.9776,VALID,120,VALID,0.619978,
2008-04-23, 03:07:00,VALID,913.673,VALID,0,VALID,100,VALID,0.0849042,VALID,19.0071,VALID,140,VALID,1.09073,
2008-04-23, 03:08:00,VALID,913.67,VALID,0,VALID,100,VALID,0.0509425,VALID,19.0166,VALID,145,VALID,0.180489,
2008-04-23, 03:09:00,VALID,913.674,VALID,0,VALID,100,VALID,0.0849042,VALID,18.9969,VALID,146,VALID,0.352289,
2008-04-23, 03:10:00,VALID,913.673,VALID,0,VALID,100,VALID,0.0339617,VALID,19.0145,VALID,145,VALID,0.91183,
2008-04-23, 03:11:00,VALID,913.691,VALID,0,VALID,100,VALID,0.0849042,VALID,19.0071,VALID,153,VALID,0.257254,
2008-04-23, 03:12:00,VALID,913.673,VALID,0,VALID,100,VALID,0.0509425,VALID,18.9939,VALID,171,VALID,0.25,
2008-04-23, 03:13:00,VALID,913.666,VALID,0,VALID,100,VALID,0.0509425,VALID,18.9841,VALID,171,VALID,0,
2008-04-23, 03:14:00,VALID,913.667,VALID,0,VALID,100,VALID,0.0169808,VALID,18.9844,VALID,163,VALID,0.827567,
2008-04-23, 03:15:00,VALID,913.68,VALID,0,VALID,100,VALID,0.0339617,VALID,18.9647,VALID,164,VALID,0.689174,
2008-04-23, 03:16:00,VALID,913.683,VALID,0,VALID,100,VALID,0.0339617,VALID,18.9814,VALID,154,VALID,0.716025,
2008-04-23, 03:17:00,VALID,913.681,VALID,0,VALID,100,VALID,0.0679233,VALID,18.9746,VALID,166,VALID,0.173735,
2008-04-23, 03:18:00,VALID,913.681,VALID,0,VALID,100,VALID,0.0849042,VALID,18.9682,VALID,146,VALID,0.0292969,
2008-04-23, 03:19:00,VALID,913.68,VALID,0,VALID,100,VALID,0.0849042,VALID,18.9485,VALID,163,VALID,0.869992,
2008-04-23, 03:20:00,VALID,913.691,VALID,0,VALID,100,VALID,0.0679233,VALID,18.9554,VALID,167,VALID,0.833333,
2008-04-23, 03:21:00,VALID,913.707,VALID,0,VALID,100,VALID,0.0339617,VALID,18.9424,VALID,168,VALID,0.566406,
2008-04-23, 03:22:00,VALID,913.713,VALID,0,VALID,100,VALID,0.0679233,VALID,18.9257,VALID,173,VALID,0.321476,
2008-04-23, 03:23:00,VALID,913.719,VALID,0,VALID,100,VALID,0.0509425,VALID,18.903,VALID,179,VALID,0,
2008-04-23, 03:24:00,VALID,913.723,VALID,0,VALID,100,VALID,0.0509425,VALID,18.894,VALID,179,VALID,0.116257,
2008-04-23, 03:25:00,VALID,913.717,VALID,0,VALID,100,VALID,0.0849042,VALID,18.8773,VALID,175,VALID,0.374132,
2008-04-23, 03:26:00,VALID,913.711,VALID,0,VALID,100,VALID,0.0509425,VALID,18.8644,VALID,176,VALID,0.941497,
2008-04-23, 03:27:00,VALID,913.697,VALID,0,VALID,100,VALID,0.0169808,VALID,18.8641,VALID,163,VALID,0.86772,
2008-04-23, 03:28:00,VALID,913.708,VALID,0,VALID,100,VALID,0.0679233,VALID,18.8674,VALID,153,VALID,0.980646,
2008-04-23, 03:29:00,VALID,913.693,VALID,0,VALID,100,VALID,0.0509425,VALID,18.894,VALID,140,VALID,1.34266,
2008-04-23, 03:30:00,VALID,913.712,VALID,0,VALID,100,VALID,0.0509425,VALID,18.8933,VALID,110,VALID,1.11364,
2008-04-23, 03:31:00,VALID,913.679,VALID,0,VALID,100,VALID,0.0679233,VALID,18.8868,VALID,101,VALID,0.484201,
2008-04-23, 03:32:00,VALID,913.666,VALID,0,VALID,100,VALID,0.0849042,VALID,18.8644,VALID,129,VALID,1.17708,
2008-04-23, 03:33:00,VALID,913.645,VALID,0,VALID,100,VALID,0.0509425,VALID,18.8514,VALID,137,VALID,0.647222,
2008-04-23, 03:34:00,VALID,913.629,VALID,0,VALID,100,VALID,0.0679233,VALID,18.8284,VALID,143,VALID,0.0634766,
2008-04-23, 03:35:00,VALID,913.61,VALID,0,VALID,100,VALID,-0.0339617,VALID,18.8167,VALID,133,VALID,0.611133,
2008-04-23, 03:36:00,VALID,913.595,VALID,0,VALID,100,VALID,-0.0509425,VALID,18.8171,VALID,136,VALID,1.00781,
2008-04-23, 03:37:00,VALID,913.586,VALID,0,VALID,100,VALID,-0.0509425,VALID,18.7974,VALID,96,VALID,0.533482,
2008-04-23, 03:38:00,VALID,913.576,VALID,0,VALID,100,VALID,-0.0679233,VALID,18.775,VALID,123,VALID,0.575521,
2008-04-23, 03:39:00,VALID,913.568,VALID,0,VALID,100,VALID,-0.0169808,VALID,18.7618,VALID,135,VALID,0.702083,
2008-04-23, 03:40:00,VALID,913.556,VALID,0,VALID,100,VALID,-0.0509425,VALID,18.7423,VALID,137,VALID,0.382813,
2008-04-23, 03:41:00,VALID,913.552,VALID,0,VALID,100,VALID,-0.0509425,VALID,18.7263,VALID,141,VALID,0.0632813,
2008-04-23, 03:42:00,VALID,913.545,VALID,0,VALID,100,VALID,-0.0679233,VALID,18.7138,VALID,141,VALID,0.492898,
2008-04-23, 03:43:00,VALID,913.556,VALID,0,VALID,100,VALID,-0.0169808,VALID,18.6939,VALID,141,VALID,0.00590701,